Date,TemperatureHighF,TemperatureAvgF,TemperatureLowF,DewpointHighF,DewpointAvgF,DewpointLowF,HumidityHigh,HumidityAvg,HumidityLow,PressureMaxIn,PressureMinIn,WindSpeedMaxMPH,WindSpeedAvgMPH,GustSpeedMaxMPH,PrecipitationSumIn
2013-3-11,19,16,13,7,5,3,71,63,55,0.00,40.00,10,6,14,0.00
2013-3-12,23,16,8,3,-4,-11,62,42,28,0.00,40.00,11,4,15,0.00
2013-3-13,15,7,-5,-7,-14,-22,44,36,30,0.00,40.00,22,11,32,0.00
2013-3-14,17,2,-9,-10,-18,-25,44,38,29,0.00,40.00,19,11,29,0.00
2013-3-15,19,10,4,-10,-15,-18,37,32,25,0.00,40.00,13,8,22,0.00
2013-3-16,22,13,7,-4,-9,-14,39,36,31,0.00,40.00,9,5,24,0.00
2013-3-17,18,12,6,-2,-7,-10,54,43,38,0.00,40.00,6,3,9,0.00
2013-3-18,16,10,4,-4,-7,-11,50,45,39,0.00,40.00,7,4,12,0.00
2013-3-19,14,8,3,-5,-8,-12,53,47,41,0.00,40.00,10,5,16,0.00
2013-3-20,11,3,-5,-1,-8,-14,80,57,45,0.00,40.00,7,4,14,0.00
2013-3-21,20,9,2,11,4,-1,86,79,64,0.00,40.00,6,3,10,0.00
2013-3-22,30,18,10,14,2,-2,88,51,34,0.00,40.00,11,6,24,0.01
2013-3-23,12,-1,-9,9,-11,-18,88,65,36,0.00,40.00,12,6,24,0.01
2013-3-24,8,2,-1,-2,-7,-12,84,66,46,0.00,40.00,9,5,16,0.00
2013-3-25,5,0,-4,1,-4,-8,85,83,77,0.00,40.00,14,7,22,0.00
2013-3-26,0,-5,-8,-8,-12,-16,82,71,54,0.00,40.00,17,10,26,0.00
2013-3-27,10,0,-12,-9,-12,-17,78,58,40,0.00,40.00,7,2,13,0.00
2013-3-28,31,20,4,3,-1,-9,56,39,30,0.00,40.00,6,4,14,0.07
2013-3-29,42,31,23,13,8,3,44,37,29,0.00,40.00,8,4,14,0.01
2013-3-30,39,31,20,13,9,-100,59,42,34,0.00,40.00,7,2,9,0.01
2013-3-31,38,32,27,24,17,11,90,54,44,0.00,40.00,6,2,11,0.00